This is the latest recevied weather packets stored in our database for station/object DO1MIT-10. If no packets are shown the sender has not sent any weather packets the latest 10 day(s).
| Time | Temp. | Humidity | Pressure | Rain* | Wind** | Luminosity | Snow |
|---|---|---|---|---|---|---|---|
| 1787642579 | 17.22° C | 71% | 1019.1 hPa | - | - | - | - |
| 1787641679 | 17.22° C | 71% | 1019 hPa | - | - | - | - |
| 1787640779 | 16.67° C | 72% | 1019 hPa | - | - | - | - |
| 1787639878 | 15.56° C | 72% | 1019 hPa | - | - | - | - |
| 1787638978 | 15° C | 73% | 1019 hPa | - | - | - | - |
| 1787638078 | 14.44° C | 73% | 1019.3 hPa | - | - | - | - |
| 1787637178 | 13.89° C | 74% | 1019.2 hPa | - | - | - | - |
| 1787636278 | 13.33° C | 74% | 1019.2 hPa | - | - | - | - |
| 1787635377 | 12.78° C | 75% | 1019.2 hPa | - | - | - | - |
| 1787634477 | 12.78° C | 75% | 1019.3 hPa | - | - | - | - |
| 1787633577 | 12.78° C | 75% | 1019.3 hPa | - | - | - | - |
| 1787632677 | 12.78° C | 75% | 1019.1 hPa | - | - | - | - |
| 1787631777 | 12.22° C | 75% | 1019.1 hPa | - | - | - | - |
| 1787630877 | 12.78° C | 75% | 1019.1 hPa | - | - | - | - |
| 1787629977 | 12.78° C | 75% | 1019.2 hPa | - | - | - | - |
| 1787629077 | 12.22° C | 75% | 1019.2 hPa | - | - | - | - |
| 1787628177 | 12.22° C | 75% | 1019.2 hPa | - | - | - | - |
| 1787627276 | 12.22° C | 75% | 1019.4 hPa | - | - | - | - |
| 1787626376 | 11.67° C | 75% | 1019.5 hPa | - | - | - | - |
| 1787625476 | 11.67° C | 75% | 1019.6 hPa | - | - | - | - |
| 1787624576 | 12.22° C | 74% | 1019.9 hPa | - | - | - | - |
| 1787623676 | 12.22° C | 74% | 1019.9 hPa | - | - | - | - |
| 1787622776 | 12.22° C | 74% | 1019.9 hPa | - | - | - | - |
| 1787621876 | 11.67° C | 74% | 1020.1 hPa | - | - | - | - |
| 1787620976 | 11.67° C | 74% | 1020.4 hPa | - | - | - | - |
* Rain since midnight (hover to see other rain measurements)
** Current wind speed in m/s (hover to see current wind gust speed)